map of ROB home
ROB - Airport
Location
City:  Monrovia, Liberia
Name:Roberts Field
ICAO:GLRB
IATA:ROB

Details
Type:Airport (Aerodrome, Airfield)
Use:Public/Civil, International (customs port of entry)
Latitude:614'02"N (6.233789)
Longitude:1021'44"W (-10.362310)
Datum:WGS 1984
Elevation:31 ft (9 m)
Variation:6.58W (WMM2015 magnetic declination)
0.11 annual change
Runways:1
Longest:11000 × 150 ft (3353 × 45.5 m), paved

Time
Time Zone:UTC+0
Local Time:

Weather
METAR:GLRB 221900Z 18004KT 8000 SCT014 27/23 Q1010 RMK HZVC
TAF:GLRB 221600Z 2218/2324 20008KT 9999 FEW018
BECMG 2221/2223 00000KT 9000 FEW015
TEMPO 2301/2305 7000 FEW012

Related Locations
Nearby:
Farthest:SCZ: 12033 mi / 19365 km
Santa Cruz/Graciosa Bay/Luova, Santa Cruz Island, SB

Find:

   beyond  
but within

Other Information
Maps:
NOTAMs:
Links:
Sources:

  
  • flag of Liberia
  

Sectional Chart

Flight Planning
at skyvector.com

Satellite Image

Google Maps Satellite view

 

Copyright © 2004-2019 Karl L. Swartz. All rights reserved.
The Great Circle Mapper name and logo are trademarks of the Great Circle Mapper.
All other trademarks mentioned herein belong to their respective owners.
Please see credits for attibutions and further copyright information.

  Follow gcmap on Facebook Follow gcmap on Twitter Follow gcmap on Google+ GCmap on LinkedIn

hCard Microformat

Geo Microformat